RH
89 90 99 100 100 98 90 80 76 70 65 59 46 36 28 30 26 31 27 21 16 17 23 19 16 15 12 9 8 8 12 12 12 10 15 14 17 23 31 30 33 37 38 52 91
80 84 88 87 93 99 99 96 85 79 72 65 56 40 27 30 50 25 19 19 12 15 22 14 13 13 12 11 10 11 12 12 9 9 10 12 16 21 25 25 26 38 49 70 86
83 83 83 85 81 84 93 98 97 90 84 75 63 49 26 34 30 15 21 22 13 15 17 14 12 11 13 11 12 11 12 9 10 10 12 11 16 21 22 22 31 34 54 60 75
73 76 80 80 83 82 82 93 88 95 95 88 73 56 28 51 18 21 21 21 21 21 20 13 12 12 13 13 11 13 11 12 11 12 18 16 23 24 23 28 31 38 48 55 76
84 78 61 74 82 83 83 83 85 85 90 93 87 66 47 23 17 21 18 20 28 27 19 12 12 11 13 12 12 14 15 16 16 19 18 20 22 25 22 30 36 41 50 56 68
86 85 80 60 77 86 85 85 91 84 84 89 88 73 44 31 14 16 24 35 24 23 16 11 12 12 15 14 14 18 18 18 18 18 19 22 20 23 33 32 40 40 50 53 74
82 85 84 76 62 81 86 84 82 80 84 84 87 68 40 30 16 16 23 22 18 16 12 13 13 14 14 16 13 16 19 27 33 18 18 18 24 24 30 33 40 42 47 43 58
76 82 84 83 61 71 81 80 78 82 84 85 74 59 44 19 18 17 18 23 20 16 15 14 16 16 16 14 15 16 16 18 43 25 19 18 51 66 29 36 36 41 40 39 46
76 77 82 84 71 66 79 77 78 79 87 81 67 53 31 23 21 16 14 17 19 18 19 18 17 17 16 17 17 15 17 22 20 16 16 19 25 30 25 31 36 37 40 36 43
70 75 78 82 76 74 81 76 73 92 82 69 54 45 30 17 14 14 13 14 15 18 20 20 18 20 19 18 22 18 17 15 16 19 18 18 21 20 22 29 34 32 34 35 40
75 71 74 80 77 80 88 57 48 56 51 29 23 21 16 14 21 17 12 14 15 19 24 18 21 23 17 16 15 15 15 17 16 15 17 20 20 16 24 29 35 39 37 40 41
79 76 72 78 75 83 95 48 36 53 46 26 28 25 24 23 23 15 16 18 19 23 19 19 25 17 15 13 14 16 18 19 17 15 17 17 16 13 22 30 29 32 41 40 41
72 76 71 81 76 82 71 48 52 60 51 23 17 21 20 20 26 17 15 15 18 21 18 21 18 15 19 18 20 20 21 21 20 17 15 15 16 15 18 25 24 24 28 33 43
69 69 76 78 78 53 56 51 58 64 49 17 29 24 18 17 23 15 14 13 15 19 17 18 15 19 20 20 19 22 16 18 20 21 40 19 28 19 14 19 25 24 26 29 35
72 73 76 74 78 65 52 63 68 64 24 13 21 20 16 20 8 14 13 12 17 17 16 18 16 20 21 20 16 20 19 20 21 23 21 18 16 18 11 13 17 22 24 24 27
68 70 76 78 77 78 76 80 67 49 32 17 25 29 30 23 12 10 14 13 12 15 14 15 13 15 16 16 18 17 21 22 22 24 30 21 19 21 17 12 12 13 18 22 23
73 73 74 71 74 52 76 84 56 36 12 14 28 30 31 27 21 15 17 19 20 24 23 18 18 16 17 20 19 22 26 34 37 34 33 20 21 16 13 13 13 14 16 16 20
77 70 70 69 69 78 90 96 45 19 18 21 24 31 35 22 20 19 18 22 17 16 19 23 24 17 18 19 23 22 23 34 42 39 29 19 18 15 11 11 11 13 15 18 19
84 80 66 71 72 79 98 92 36 19 12 14 23 38 37 25 20 19 20 18 16 15 19 20 19 13 15 16 17 21 26 19 29 28 35 22 16 13 10 11 13 12 13 16 20
99 72 58 69 78 85 99 85 38 15 11 18 21 28 34 30 24 21 20 14 15 14 13 16 22 14 16 16 17 21 20 30 27 37 42 22 18 16 14 14 12 12 12 16 22
99 89 54 70 83 98 95 66 45 18 15 21 27 20 27 31 23 27 21 14 13 14 14 15 19 20 20 24 21 23 27 24 21 26 37 33 21 14 13 12 13 13 13 13 15
93 97 61 76 98 88 88 54 40 30 19 23 32 29 23 28 29 26 34 16 14 13 19 17 20 24 24 17 14 17 22 22 32 29 28 31 28 13 13 12 14 13 14 13 15
96 88 62 74 91 93 58 51 40 33 26 27 32 29 30 40 36 26 26 20 16 15 19 18 22 31 24 21 21 23 21 20 22 23 30 53 32 13 13 14 14 14 13 13 16
98 99 94 93 47 54 52 46 43 34 34 23 29 26 32 40 36 34 29 23 26 18 32 26 20 25 31 23 20 25 19 19 22 39 32 27 20 14 13 14 13 14 13 12 14
98 79 68 94 87 54 44 35 38 36 33 34 32 32 33 38 37 42 33 30 32 29 26 22 26 21 18 16 15 16 18 18 21 21 28 22 19 13 13 13 13 14 14 16 14
99 57 51 48 67 59 50 43 34 28 26 33 38 29 30 32 35 41 40 33 27 25 28 22 30 24 22 18 16 16 14 15 14 14 15 15 16 12 12 11 13 15 17 17 22
88 44 47 59 61 64 56 45 34 26 24 23 25 30 32 29 37 40 39 37 34 36 32 28 34 29 35 20 21 34 20 17 16 15 16 22 17 13 13 13 14 14 18 23 32
Wind_Speed
16 17 15 15 18 19 19 19 20 21 23 25 27 27 27 31 32 14 10 1 5 7 8 8 10 11 12 13 9 10 12 10 5 5 5 3 9 8 3 11 2 7 9 14 12
19 18 19 18 19 19 21 21 21 21 22 24 27 29 29 31 23 17 8 6 6 12 8 11 9 11 12 9 5 10 13 6 7 10 8 8 11 10 3 7 10 7 5 6 9
19 19 20 19 19 21 20 21 21 22 22 24 26 29 29 26 13 8 10 6 7 14 9 10 9 10 15 8 10 11 11 14 6 4 10 10 8 5 12 14 13 12 9 5 6
17 19 20 20 20 20 21 20 22 23 24 24 25 27 29 12 6 6 8 6 9 12 10 11 10 12 13 12 8 10 13 8 12 6 9 10 4 12 5 11 7 10 5 7 7
17 17 17 20 20 21 22 21 22 23 24 25 25 26 18 8 12 1 7 8 12 12 13 11 12 13 14 6 4 11 9 7 5 7 8 3 8 6 4 5 8 9 7 5 4
17 17 18 17 18 20 22 21 20 21 23 25 25 24 11 17 3 4 5 8 12 16 15 13 11 6 11 9 8 4 8 6 6 4 7 9 8 10 11 8 7 6 7 6 9
17 17 19 19 18 18 19 19 21 22 23 24 25 14 11 21 8 7 10 11 11 15 11 13 8 10 4 11 7 13 15 10 15 7 1 8 11 12 13 9 10 8 8 9 7
18 18 18 20 19 18 19 18 20 22 22 21 20 9 9 11 9 15 14 13 10 12 11 5 8 11 10 8 11 15 20 14 11 19 3 11 5 31 11 10 10 11 8 13 15
18 19 18 19 22 18 18 18 19 22 22 17 6 8 11 5 14 20 18 19 16 12 10 8 10 13 11 11 15 16 12 15 10 6 6 4 3 7 8 8 8 9 12 10 15
20 18 18 18 21 19 17 16 17 20 11 8 11 8 12 11 9 13 21 21 15 12 12 12 9 12 14 13 13 4 12 3 10 7 10 8 10 3 6 8 10 9 10 11 13
18 18 18 17 20 18 16 13 7 8 14 13 4 15 3 6 6 12 20 20 16 15 16 17 12 14 16 14 15 11 10 11 7 5 6 2 15 7 10 7 9 10 11 12 14
18 16 17 17 18 17 11 8 6 5 11 17 22 22 25 3 6 14 21 18 18 18 19 13 14 17 4 6 8 10 12 11 7 1 7 12 5 8 12 13 13 13 14 14 15
22 18 16 17 16 16 14 13 4 6 8 15 23 24 24 24 16 17 20 23 21 21 20 17 13 10 7 9 10 11 12 10 8 9 10 10 6 9 11 10 12 15 15 18 17
22 18 15 15 13 14 13 9 6 4 6 12 9 10 24 21 16 28 28 23 17 22 21 17 16 9 12 12 10 13 10 7 11 13 2 15 3 18 15 14 14 14 16 17 20
20 17 16 15 16 8 4 3 7 5 7 2 10 4 11 21 7 26 27 22 25 21 16 18 18 12 15 14 12 13 1 8 11 11 14 5 8 9 12 13 17 17 17 17 18
21 20 16 14 18 22 7 4 7 7 13 7 8 10 12 24 20 14 25 25 20 20 19 20 14 15 18 8 10 6 7 10 10 12 9 12 6 12 9 5 6 12 18 17 18
21 20 20 17 13 18 17 7 7 13 3 14 8 11 16 17 23 17 29 28 22 22 22 21 15 14 6 10 10 10 12 7 6 6 9 5 5 12 1 5 2 4 5 12 17
22 20 23 23 23 20 11 7 16 18 29 5 3 11 13 14 22 19 25 24 26 25 14 17 20 21 15 16 11 16 15 6 7 7 8 9 6 1 5 2 3 3 6 6 10
24 22 25 26 25 19 5 13 21 27 13 29 5 11 12 14 13 21 26 27 29 26 19 19 22 23 17 16 14 14 16 12 7 3 4 7 8 9 4 4 2 1 3 3 5
25 24 28 26 23 19 6 20 24 21 25 15 22 13 13 14 15 19 23 26 28 30 23 6 16 11 15 9 12 12 12 9 8 9 9 13 9 6 7 3 5 3 4 4 2
25 7 14 26 21 6 11 23 31 24 20 18 16 22 11 11 18 14 13 15 28 28 24 18 11 16 12 17 17 12 11 9 10 12 7 8 6 8 2 4 4 3 1 2 4
13 7 19 32 9 6 17 28 29 34 26 16 9 15 14 13 16 19 13 21 12 24 28 23 11 12 16 16 19 18 19 18 9 13 9 9 11 11 6 11 4 7 5 4 2
5 5 19 37 13 15 31 35 30 29 30 22 17 16 14 9 7 16 15 10 7 23 25 21 14 12 15 11 7 12 17 14 17 13 13 10 9 7 4 4 9 10 9 6 7
6 6 5 14 20 30 32 34 32 32 31 28 19 16 14 14 10 2 13 11 10 14 14 18 17 20 16 17 15 18 19 19 16 10 13 15 17 14 11 13 11 12 9 8 6
8 9 13 14 22 28 27 21 32 33 31 26 25 19 17 11 11 7 4 5 6 9 9 18 23 19 21 19 13 17 19 21 19 18 19 16 18 16 10 8 11 8 3 3 7
6 9 15 10 25 32 26 29 33 33 30 34 28 24 18 17 8 9 2 8 9 12 14 20 16 22 21 18 18 15 15 17 18 19 19 19 20 14 14 10 8 10 6 6 3
19 27 14 19 24 22 26 32 35 32 32 32 29 24 24 16 6 5 6 8 10 9 14 15 15 17 17 19 19 18 18 17 17 18 16 17 14 15 12 10 10 12 5 6 4
Wind_Direction
314 311 319 321 318 320 323 325 330 333 336 336 336 336 334 330 324 310 265 156 193 192 168 176 197 221 236 247 252 258 265 274 323 269 81 37 284 182 102 281 283 352 336 52 97
299 301 302 307 309 316 316 320 323 327 331 333 334 336 334 330 316 280 232 240 206 181 195 204 209 221 234 233 222 258 280 357 31 338 338 344 312 340 334 218 263 156 84 92 111
296 297 295 295 296 307 308 310 318 322 326 330 333 334 334 329 294 94 186 200 186 183 240 244 274 242 250 233 232 267 272 317 310 359 313 305 281 358 307 300 47 354 112 159 134
309 296 295 296 295 292 299 304 305 317 322 327 330 334 333 315 311 95 184 222 200 196 240 233 237 235 244 232 224 270 274 292 303 311 294 282 22 287 291 6 0 60 97 123 103
314 318 307 292 290 293 293 301 296 301 313 321 327 334 340 276 270 208 229 233 200 201 227 225 234 237 258 251 265 244 295 316 311 265 250 268 255 288 294 82 85 105 104 102 110
308 314 320 315 304 291 289 296 301 301 305 312 321 327 287 275 282 238 192 181 198 203 220 229 237 284 295 280 279 9 279 255 224 189 196 262 234 235 117 133 129 137 109 111 108
302 307 312 320 313 304 292 294 298 298 301 303 313 312 268 252 280 232 201 212 212 206 226 213 261 257 285 258 246 273 263 267 356 196 234 282 309 237 127 150 139 117 122 137 107
294 301 306 311 315 309 296 295 296 293 295 301 309 266 262 272 243 229 217 220 214 214 246 266 249 269 278 297 265 253 245 283 174 261 127 278 124 242 136 144 162 143 149 117 110
291 294 303 308 315 309 296 291 287 289 288 294 277 242 265 195 227 225 215 214 203 214 227 246 245 247 244 245 251 230 256 244 194 215 307 269 280 309 150 162 159 176 147 141 137
280 290 297 304 313 310 300 290 286 279 283 238 249 266 241 240 204 218 201 212 200 202 214 224 228 238 227 248 252 258 248 289 276 183 228 248 243 157 156 167 162 182 158 154 156
273 282 288 299 307 309 314 309 228 198 222 235 241 235 296 224 203 211 188 198 211 197 215 202 222 232 244 224 264 313 299 277 242 114 277 279 287 111 153 164 165 174 186 166 174
284 275 287 290 299 300 291 271 347 343 290 254 249 253 255 254 245 212 180 193 201 207 217 212 230 251 256 275 252 247 264 268 274 118 243 273 251 159 163 174 186 180 181 179 198
272 276 276 287 294 286 240 263 296 297 265 277 234 234 227 229 238 206 194 203 199 211 215 226 231 223 211 215 238 238 262 282 283 280 259 261 247 168 184 175 203 178 186 186 186
265 269 263 280 280 245 237 245 241 234 274 255 208 234 218 217 230 232 190 208 211 215 222 221 243 208 221 243 235 264 222 259 273 267 70 260 220 259 166 194 201 193 187 186 189
258 247 246 248 314 269 59 207 204 209 280 74 161 120 187 193 197 197 205 209 218 213 214 221 225 203 229 238 245 264 194 247 261 274 284 243 251 174 199 194 190 200 199 193 196
248 243 240 247 252 256 292 300 180 223 239 209 161 197 189 208 237 173 194 210 218 222 222 233 202 219 230 238 252 233 226 238 244 248 248 215 273 172 186 318 115 174 194 205 198
243 240 228 231 243 242 255 261 207 228 186 222 195 190 199 200 221 213 188 195 200 209 210 218 200 213 224 206 189 205 223 226 210 204 249 87 247 256 279 132 327 298 175 202 211
237 235 229 230 233 254 307 216 220 225 230 102 217 188 206 208 209 192 192 200 209 207 203 209 212 206 189 225 190 210 224 217 225 228 240 140 248 228 90 29 242 249 232 223 227
229 228 226 222 226 243 253 210 221 219 199 228 184 215 203 218 211 202 210 208 202 204 221 203 218 199 201 210 245 204 221 262 272 255 297 283 229 243 195 238 225 104 266 219 246
209 221 222 215 214 222 231 243 232 229 234 232 223 210 207 204 208 203 210 208 210 212 217 223 212 195 178 216 221 267 221 210 229 252 237 251 226 278 164 158 154 184 82 110 124
203 218 207 203 196 213 230 233 229 245 240 213 230 243 228 201 210 225 225 221 209 204 215 220 232 180 162 208 207 202 233 230 241 234 250 263 281 56 47 179 224 222 227 45 95
195 208 166 178 190 213 225 223 243 228 251 218 269 266 232 233 212 216 215 224 217 213 206 216 205 218 213 222 225 203 208 219 237 242 225 259 279 321 279 267 306 256 227 261 221
193 171 186 179 198 211 224 225 233 237 242 222 222 239 222 235 237 214 234 267 197 218 203 207 221 219 215 188 221 240 242 234 225 245 257 222 248 300 262 237 223 248 272 214 228
172 168 182 206 210 205 215 217 214 232 251 242 222 229 225 233 230 269 215 214 292 242 199 216 209 218 219 211 202 215 233 232 239 233 244 254 271 271 257 236 243 239 213 249 203
187 205 179 196 209 219 221 228 211 210 232 247 234 226 224 231 227 205 229 198 243 244 231 213 222 220 230 242 234 214 215 227 233 241 244 253 259 271 268 301 302 338 270 240 232
178 200 188 198 203 217 219 218 222 215 210 229 237 230 234 237 254 145 332 217 214 196 225 210 222 227 236 232 241 240 237 236 241 236 247 251 253 268 287 281 259 280 269 251 265
206 209 186 209 197 205 215 218 219 214 219 217 223 238 225 230 132 41 75 320 322 305 217 208 219 222 230 234 235 239 238 249 247 246 242 252 267 267 273 281 271 263 210 256 185